When you browse on this site, cookies collect data to enhance your experience and personalize the content and advertising you see.
Visit our Privacy Policy to learn more. By continuing to use the site, you agree to this use of cookies and data.
  • In Latvia
  • List of Countries
  • For 7 days
  • Water Temperature
  • Satellite Maps
  • Weather Map
  • Weather Widgets
  • user-avatar
    Login

    Hourly Weather Molodycz

    Today, 19 June, Wednesday

    Time Temperature Precipitation Wind Pressure Humidity
    00:00 +19°C° 0 mm 3 mps 745 mmHg 94%
    01:00 +19°C° 0 mm 3 mps 745 mmHg 95%
    02:00 +18°C° 0 mm 3 mps 745 mmHg 95%
    03:00 +18°C° 0 mm 3 mps 745 mmHg 95%
    04:00 +18°C° 0 mm 3 mps 745 mmHg 96%
    05:00 +18°C° 0 mm 3 mps 744 mmHg 96%
    06:00 +19°C° 0 mm 4 mps 744 mmHg 93%
    07:00 +21°C° 0 mm 4 mps 744 mmHg 90%
    08:00 +22°C° 0 mm 4 mps 744 mmHg 87%
    09:00 +23°C° 0.1 mm 4 mps 744 mmHg 83%
    10:00 +25°C° 0.1 mm 4 mps 744 mmHg 80%
    11:00 +27°C° 0.1 mm 4 mps 744 mmHg 76%
    12:00 +27°C° 1.3 mm 4 mps 743 mmHg 74%
    13:00 +27°C° 1.3 mm 3 mps 743 mmHg 73%
    14:00 +28°C° 1.3 mm 3 mps 743 mmHg 71%
    15:00 +28°C° 0.4 mm 3 mps 743 mmHg 71%
    16:00 +28°C° 0.4 mm 3 mps 742 mmHg 72%
    17:00 +28°C° 0.4 mm 3 mps 742 mmHg 72%
    18:00 +26°C° 0.2 mm 3 mps 742 mmHg 77%
    19:00 +25°C° 0.2 mm 3 mps 742 mmHg 82%
    20:00 +24°C° 0.2 mm 3 mps 741 mmHg 87%
    21:00 +22°C° 0 mm 3 mps 742 mmHg 88%
    22:00 +21°C° 0 mm 3 mps 742 mmHg 90%
    23:00 +21°C° 0 mm 3 mps 742 mmHg 92%

    Tomorrow, 20 June, Thursday

    Time Temperature Precipitation Wind Pressure Humidity
    00:00 +20°C° 0 mm 2 mps 742 mmHg 92%
    01:00 +20°C° 0 mm 2 mps 741 mmHg 91%
    02:00 +20°C° 0 mm 2 mps 741 mmHg 91%
    03:00 +19°C° 0 mm 2 mps 741 mmHg 90%
    04:00 +19°C° 0 mm 2 mps 741 mmHg 90%
    05:00 +19°C° 0 mm 2 mps 741 mmHg 89%
    06:00 +21°C° 0 mm 2 mps 741 mmHg 86%
    07:00 +23°C° 0 mm 2 mps 741 mmHg 83%
    08:00 +25°C° 0 mm 2 mps 742 mmHg 79%
    09:00 +26°C° 0 mm 3 mps 742 mmHg 74%
    10:00 +27°C° 0 mm 3 mps 742 mmHg 69%
    11:00 +28°C° 0 mm 4 mps 742 mmHg 64%
    12:00 +29°C° 0 mm 3 mps 742 mmHg 61%
    13:00 +29°C° 0 mm 3 mps 741 mmHg 58%
    14:00 +30°C° 0 mm 3 mps 741 mmHg 55%
    15:00 +30°C° 0.1 mm 3 mps 741 mmHg 56%
    16:00 +30°C° 0.1 mm 3 mps 741 mmHg 57%
    17:00 +30°C° 0.1 mm 2 mps 741 mmHg 58%
    18:00 +28°C° 0.8 mm 2 mps 741 mmHg 67%
    19:00 +25°C° 0.8 mm 2 mps 741 mmHg 76%
    20:00 +23°C° 0.8 mm 2 mps 741 mmHg 85%
    21:00 +23°C° 0 mm 2 mps 741 mmHg 84%
    22:00 +21°C° 0 mm 2 mps 741 mmHg 84%
    23:00 +22°C° 0 mm 1 mps 742 mmHg 84%

    Day after tomorrow, 21 June, Friday

    Time Temperature Precipitation Wind Pressure Humidity
    00:00 +21°C° 0 mm 1 mps 742 mmHg 84%
    01:00 +21°C° 0 mm 1 mps 742 mmHg 85%
    02:00 +21°C° 0 mm 1 mps 742 mmHg 86%
    03:00 +20°C° 0 mm 1 mps 742 mmHg 87%
    04:00 +20°C° 0 mm 1 mps 742 mmHg 87%
    05:00 +20°C° 0 mm 1 mps 742 mmHg 87%
    06:00 +22°C° 0 mm 1 mps 742 mmHg 84%
    07:00 +23°C° 0 mm 1 mps 742 mmHg 80%
    08:00 +24°C° 0 mm 1 mps 743 mmHg 76%
    09:00 +26°C° 0 mm 2 mps 743 mmHg 72%
    10:00 +27°C° 0 mm 2 mps 743 mmHg 68%
    11:00 +28°C° 0 mm 2 mps 743 mmHg 64%
    12:00 +29°C° 0.1 mm 2 mps 743 mmHg 61%
    13:00 +30°C° 0.1 mm 1 mps 743 mmHg 58%
    14:00 +30°C° 0.1 mm 1 mps 743 mmHg 55%
    15:00 +30°C° 0.2 mm 1 mps 742 mmHg 57%
    16:00 +29°C° 0.2 mm 1 mps 742 mmHg 59%
    17:00 +29°C° 0.2 mm 2 mps 742 mmHg 61%
    18:00 +28°C° 0.5 mm 1 mps 742 mmHg 67%
    19:00 +26°C° 0.5 mm 1 mps 742 mmHg 72%
    20:00 +25°C° 0.5 mm 1 mps 742 mmHg 78%
    21:00 +24°C° 0.2 mm 1 mps 742 mmHg 80%
    22:00 +23°C° 0.2 mm 1 mps 742 mmHg 82%
    23:00 +23°C° 0.2 mm 1 mps 743 mmHg 84%

    22 June, Saturday

    Time Temperature Precipitation Wind Pressure Humidity
    00:00 +22°C° 0.1 mm 1 mps 743 mmHg 85%
    01:00 +22°C° 0.1 mm 1 mps 743 mmHg 86%
    02:00 +20°C° 0.1 mm 2 mps 743 mmHg 86%
    03:00 +21°C° 0.2 mm 1 mps 743 mmHg 88%
    04:00 +21°C° 0.2 mm 1 mps 743 mmHg 89%
    05:00 +21°C° 0.2 mm 1 mps 743 mmHg 90%
    06:00 +20°C° 0.1 mm 2 mps 743 mmHg 90%
    07:00 +21°C° 0.1 mm 2 mps 743 mmHg 90%
    08:00 +23°C° 0.1 mm 2 mps 743 mmHg 89%
    09:00 +22°C° 0.9 mm 3 mps 743 mmHg 87%
    10:00 +24°C° 0.9 mm 3 mps 743 mmHg 85%
    11:00 +25°C° 0.9 mm 4 mps 743 mmHg 84%
    12:00 +25°C° 1 mm 3 mps 743 mmHg 84%
    13:00 +25°C° 1 mm 3 mps 743 mmHg 84%
    14:00 +25°C° 1 mm 2 mps 743 mmHg 84%
    15:00 +25°C° 1.2 mm 2 mps 743 mmHg 82%
    16:00 +25°C° 1.2 mm 2 mps 743 mmHg 81%
    17:00 +25°C° 1.2 mm 2 mps 743 mmHg 80%
    18:00 +25°C° 0.5 mm 2 mps 742 mmHg 83%
    19:00 +24°C° 0.5 mm 2 mps 742 mmHg 86%
    20:00 +23°C° 0.5 mm 2 mps 742 mmHg 88%
    21:00 +22°C° 0.1 mm 1 mps 742 mmHg 89%
    22:00 +22°C° 0.1 mm 1 mps 742 mmHg 91%
    23:00 +19°C° 0.1 mm 0 mps 742 mmHg 92%

    23 June, Sunday

    Time Temperature Precipitation Wind Pressure Humidity
    00:00 +19°C° 0 mm 0 mps 742 mmHg 92%
    01:00 +19°C° 0 mm 0 mps 742 mmHg 93%
    02:00 +19°C° 0 mm 0 mps 742 mmHg 93%
    03:00 +20°C° 0.1 mm 1 mps 742 mmHg 94%
    04:00 +20°C° 0.1 mm 1 mps 742 mmHg 95%
    05:00 +20°C° 0.1 mm 1 mps 742 mmHg 96%
    06:00 +21°C° 0.2 mm 1 mps 742 mmHg 92%
    07:00 +21°C° 0.2 mm 2 mps 742 mmHg 89%
    08:00 +23°C° 0.2 mm 2 mps 742 mmHg 86%
    09:00 +24°C° 0 mm 2 mps 742 mmHg 81%
    10:00 +25°C° 0 mm 2 mps 742 mmHg 75%
    11:00 +27°C° 0 mm 3 mps 742 mmHg 70%
    12:00 +27°C° 0.3 mm 3 mps 742 mmHg 69%
    13:00 +27°C° 0.3 mm 3 mps 742 mmHg 68%
    14:00 +28°C° 0.3 mm 4 mps 741 mmHg 67%
    15:00 +26°C° 1.8 mm 4 mps 742 mmHg 74%
    16:00 +23°C° 1.8 mm 5 mps 742 mmHg 82%
    17:00 +21°C° 1.8 mm 6 mps 742 mmHg 89%
    18:00 +20°C° 0 mm 6 mps 742 mmHg 89%
    19:00 +19°C° 0 mm 5 mps 742 mmHg 89%
    20:00 +17°C° 0 mm 5 mps 742 mmHg 89%
    21:00 +17°C° 0 mm 5 mps 743 mmHg 88%
    22:00 +17°C° 0 mm 5 mps 743 mmHg 88%
    23:00 +16°C° 0 mm 5 mps 743 mmHg 88%

    24 June, Monday

    Time Temperature Precipitation Wind Pressure Humidity
    00:00 +16°C° 0 mm 5 mps 744 mmHg 89%
    01:00 +16°C° 0 mm 5 mps 744 mmHg 90%
    02:00 +16°C° 0 mm 5 mps 744 mmHg 91%
    03:00 +16°C° 0.4 mm 5 mps 744 mmHg 93%
    04:00 +16°C° 0.4 mm 5 mps 744 mmHg 94%
    05:00 +16°C° 0.4 mm 5 mps 745 mmHg 96%
    06:00 +15°C° 0.6 mm 6 mps 745 mmHg 96%
    07:00 +15°C° 0.6 mm 6 mps 745 mmHg 95%
    08:00 +15°C° 0.6 mm 6 mps 746 mmHg 95%
    09:00 +15°C° 0.3 mm 6 mps 746 mmHg 95%
    10:00 +15°C° 0.3 mm 6 mps 747 mmHg 95%
    11:00 +15°C° 0.3 mm 6 mps 747 mmHg 95%
    12:00 +15°C° 0.2 mm 6 mps 748 mmHg 94%
    13:00 +15°C° 0.2 mm 5 mps 748 mmHg 93%
    14:00 +15°C° 0.2 mm 5 mps 748 mmHg 92%
    15:00 +15°C° 0 mm 5 mps 748 mmHg 90%
    16:00 +17°C° 0 mm 4 mps 749 mmHg 88%
    17:00 +17°C° 0 mm 4 mps 749 mmHg 87%
    18:00 +17°C° 0 mm 3 mps 749 mmHg 86%
    19:00 +17°C° 0 mm 3 mps 749 mmHg 85%
    20:00 +17°C° 0 mm 2 mps 749 mmHg 84%
    21:00 +17°C° 0 mm 2 mps 750 mmHg 84%
    22:00 +17°C° 0 mm 3 mps 750 mmHg 84%
    23:00 +17°C° 0 mm 3 mps 750 mmHg 83%
    Show more